DELTA 1 DEB, 27720

Orbit data source: Space-Track

DELTA 1 DEB, 27720 is space debris in SSO originally from a launch on Fri, 22 Jan 1965 UTC launched from the Air Force Eastern Test Range (AFETR). Debris objects in space refer to the collection of defunct objects orbiting the Earth. Examples of debris include non-operational satellites, rocket bodies, and fragments generated from explosions, collisions, or faulty payload assembly.

Loading next visibility...
Identifier
27720, 1965-004E
Orbit
SSO
Country
Flag of USUS
Related business
Manufacturer
Unknown
Mission
Spacecraft
Bus & Motor
Unknown
Mass
Unknown
Launch date (UTC)
1965-01-22 (61 years ago)
Launch vehicle
Unknown
Launch site
Air Force Eastern Test Range (AFETR)
Object type
Payload
Rocket body
Debris
Shape & HBR
Unknown shape, 0.1 m
Radar Cross Section
Small (<0.1 m²)

Expand to show TLE details & history
Last TLE update: 2 days ago

TLE from 2 days ago
0 DELTA 1 DEB
1 27720U 65004E   25302.70629886 -.00000056  00000-0 -61384-4 0  9990
2 27720  96.4808 295.8933 1168280 143.1959 225.5403 12.09207582487356
Epoch: 2025-10-29T16:57Z
TLE epoch observation values (Epoch: 2025-10-29T16:57:04.221Z)
Latitude
0.00003°
Longitude
3.35012°
Altitude
2,348.273 km
Speed
6.455 km/s
True Right ascension
19h 43m 34s
True Declination
0° 00' 00"
Sunlit
Object was in daylight at epoch
Visualization orbit readout
Latitude
Unknown
Longitude
Unknown
Altitude
Unknown
Speed
Unknown
Apparent Right ascension
Unknown
Apparent Declination
Unknown
Sunlit
N/A
Visualization observer readout
Local Sidereal Time
16:06:28
Azimuth
Unknown
Elevation
Unknown
Doppler factor
Unknown
Orbital elements
Apogee altitude
2,573.623 km
Perigee altitude
700.79 km
Semi-major axis
8,015.344 km
Eccentricity
0.11683
Inclination
96.4808°
RAAN
295.8933°
Arg. of periapsis
143.1959°
True anomaly
216.90683°
Mean anomaly
225.5403°
Eccentric anomaly
221.13676°
Mean motion
3.02454 °/min
Orbital period
119.03 mins
BSTAR
-0.000061384
Loading maneuver chart data...
Computing Atmospheric mass density...
Loading historical data...
Loading historical data...
Loading historical data...
Loading historical data...
Loading historical data...
Loading historical data...
Loading historical data...
Other satellites on launch #4 in the year 1965 (1965-01-22 UTC)

Documentation

Showing up to 5 results
|